Location: Bremen
(53.0793°N, 8.8017°E)
Time: 11:45:27
(UTC+01:00)

Transit 2A - Pass Details

Date: 07 December 2021
Orbit: 591 x 967 km, 66.7° (Epoch: 23 January)

Event Time Altitude Azimuth Distance (km) Brightness Sun altitude
Exits shadow 06:39:10 13° 325° (NW) 2,492 8.2 -14.6°
Maximum altitude 06:44:40 46° 36° (NE) 1,287 7.3 -13.8°
Drops below altitude 10° 06:50:41 10° 108° (ESE) 2,663 10.3 -13.0°
Sets 06:53:18 0° 115° (ESE) 3,572 11.5 -12.6°
